User: anonymous   Login
Location: Cronhütte
(48.9135°N, 9.6869°E)
Time: 19:21:51
(UTC+00:00)
Language:

BREEZE-M DEB (TANK) - Orbit

View from above orbital plane
View from above orbital plane
View from above satellite
View from above satellite

Ground track
Ground track

The orbit data is extracted from the following two-line orbital elements,

1 37828U 11054C   24206.89099754  .00007906  00000-0  12396-2 0  9999
2 37828  49.4125  84.6796 5549376 119.4278 306.7594  4.74139878215234
Epoch (UTC): 24 July 2024 21:23:02
Eccentricity: 0.5549376
inclination: 49.4125°
perigee height: 283 km
apogee height: 16894 km
right ascension of ascending node: 84.6796°
argument of perigee: 119.4278°
revolutions per day: 4.74139878
mean anomaly at epoch: 306.7594°
orbit number at epoch: 21523

The dashed part of the orbit path shows where the satellite is in the earth's shadow,  

DLR